Year,Month,Day,Hour,Minute,Value (Times are PST for windgust in km/hr)
2021,03,28,00,02,1.60
2021,03,28,00,07,8.10
2021,03,28,00,08,4.80
2021,03,28,00,09,4.80
2021,03,28,00,10,3.20
2021,03,28,00,11,8.10
2021,03,28,00,12,6.40
2021,03,28,00,13,4.80
2021,03,28,00,14,8.10
2021,03,28,00,15,6.40
2021,03,28,00,16,3.20
2021,03,28,00,22,6.40
2021,03,28,00,23,4.80
2021,03,28,00,24,6.40
2021,03,28,00,26,3.20
2021,03,28,00,28,9.60
2021,03,28,00,29,6.40
2021,03,28,00,31,8.10
2021,03,28,00,32,6.40
2021,03,28,00,34,9.60
2021,03,28,00,35,8.10
2021,03,28,00,36,6.40
2021,03,28,00,37,8.10
2021,03,28,00,38,14.50
2021,03,28,00,39,11.30
2021,03,28,00,40,9.60
2021,03,28,00,41,9.60
2021,03,28,00,42,11.30
2021,03,28,00,43,11.30
2021,03,28,00,44,6.40
2021,03,28,00,45,9.60
2021,03,28,00,46,8.10
2021,03,28,00,47,9.60
2021,03,28,00,48,12.90
2021,03,28,00,49,9.60
2021,03,28,00,50,8.10
2021,03,28,00,51,9.60
2021,03,28,00,52,8.10
2021,03,28,00,53,9.60
2021,03,28,00,54,4.80
2021,03,28,00,56,6.40
2021,03,28,00,57,9.60
2021,03,28,00,58,11.30
2021,03,28,00,59,4.80
2021,03,28,01,00,8.10
2021,03,28,01,01,8.10
2021,03,28,01,02,8.10
2021,03,28,01,03,8.10
2021,03,28,01,04,9.60
2021,03,28,01,05,1.60
2021,03,28,01,08,8.10
2021,03,28,01,09,6.40
2021,03,28,01,10,8.10
2021,03,28,01,11,9.60
2021,03,28,01,12,4.80
2021,03,28,01,14,4.80
2021,03,28,01,20,8.10
2021,03,28,01,21,4.80
2021,03,28,01,23,8.10
2021,03,28,01,24,1.60
2021,03,28,01,25,8.10
2021,03,28,01,27,6.40
2021,03,28,01,28,1.60
2021,03,28,01,29,6.40
2021,03,28,01,30,6.40
2021,03,28,01,32,6.40
2021,03,28,01,37,4.80
2021,03,28,01,38,6.40
2021,03,28,01,39,8.10
2021,03,28,01,40,6.40
2021,03,28,01,47,8.10
2021,03,28,02,05,3.20
2021,03,28,02,06,4.80
2021,03,28,02,13,4.80
2021,03,28,02,52,4.80
2021,03,28,04,16,4.80
2021,03,28,04,23,8.10
2021,03,28,04,24,8.10
2021,03,28,04,25,6.40
2021,03,28,04,26,6.40
2021,03,28,04,27,4.80
2021,03,28,04,28,8.10
2021,03,28,04,29,1.60
2021,03,28,04,30,6.40
2021,03,28,04,31,4.80
2021,03,28,04,32,9.60
2021,03,28,04,33,8.10
2021,03,28,04,34,9.60
2021,03,28,04,35,4.80
2021,03,28,04,37,4.80
2021,03,28,04,38,4.80
2021,03,28,04,39,6.40
2021,03,28,04,40,8.10
2021,03,28,04,41,6.40
2021,03,28,04,42,6.40
2021,03,28,04,44,6.40
2021,03,28,04,45,11.30
2021,03,28,04,46,4.80
2021,03,28,04,47,4.80
2021,03,28,04,51,6.40
2021,03,28,04,55,6.40
2021,03,28,04,56,8.10
2021,03,28,04,57,8.10
2021,03,28,04,58,3.20
2021,03,28,04,59,11.30
2021,03,28,05,00,4.80
2021,03,28,05,01,3.20
2021,03,28,05,02,6.40
2021,03,28,05,03,6.40
2021,03,28,05,07,8.10
2021,03,28,05,08,4.80
2021,03,28,05,10,11.30
2021,03,28,05,13,6.40
2021,03,28,05,15,6.40
2021,03,28,05,16,4.80
2021,03,28,05,36,11.30
2021,03,28,05,37,4.80
2021,03,28,05,38,4.80
2021,03,28,05,42,8.10
2021,03,28,05,43,8.10
2021,03,28,05,45,4.80
2021,03,28,06,04,4.80
2021,03,28,06,05,12.90
2021,03,28,06,06,4.80
2021,03,28,06,09,9.60
2021,03,28,06,10,1.60
2021,03,28,06,14,16.10
2021,03,28,06,15,8.10
2021,03,28,06,16,14.50
2021,03,28,06,17,11.30
2021,03,28,06,18,11.30
2021,03,28,06,19,6.40
2021,03,28,06,23,11.30
2021,03,28,06,24,12.90
2021,03,28,06,25,6.40
2021,03,28,06,27,6.40
2021,03,28,06,28,8.10
2021,03,28,06,30,4.80
2021,03,28,06,31,4.80
2021,03,28,06,32,6.40
2021,03,28,06,33,3.20
2021,03,28,06,34,6.40
2021,03,28,06,35,12.90
2021,03,28,06,36,11.30
2021,03,28,06,37,8.10
2021,03,28,06,38,9.60
2021,03,28,06,39,6.40
2021,03,28,06,40,4.80
2021,03,28,06,43,6.40
2021,03,28,06,44,4.80
2021,03,28,06,45,6.40
2021,03,28,06,46,6.40
2021,03,28,06,47,3.20
2021,03,28,06,51,6.40
2021,03,28,06,52,9.60
2021,03,28,06,53,1.60
2021,03,28,06,54,6.40
2021,03,28,06,56,9.60
2021,03,28,06,57,6.40
2021,03,28,07,33,4.80
2021,03,28,07,34,6.40
2021,03,28,07,35,8.10
2021,03,28,07,36,12.90
2021,03,28,07,38,3.20
2021,03,28,07,39,6.40
2021,03,28,07,40,1.60
2021,03,28,07,50,3.20
2021,03,28,07,51,3.20
2021,03,28,07,59,12.90
2021,03,28,08,00,12.90
2021,03,28,08,09,6.40
2021,03,28,08,19,8.10
2021,03,28,08,20,6.40
2021,03,28,08,22,8.10
2021,03,28,08,23,4.80
2021,03,28,08,24,8.10
2021,03,28,08,25,3.20
2021,03,28,08,26,3.20
2021,03,28,08,29,12.90
2021,03,28,08,30,9.60
2021,03,28,08,40,8.10
2021,03,28,08,43,9.60
2021,03,28,08,44,6.40
2021,03,28,08,47,6.40
2021,03,28,08,49,3.20
2021,03,28,09,00,8.10
2021,03,28,09,01,6.40
2021,03,28,09,02,1.60
2021,03,28,09,03,8.10
2021,03,28,09,15,1.60
2021,03,28,10,10,8.10
2021,03,28,10,13,3.20
2021,03,28,10,20,3.20
2021,03,28,10,25,6.40
2021,03,28,10,27,6.40
2021,03,28,10,41,3.20
2021,03,28,10,46,6.40
2021,03,28,10,50,3.20
2021,03,28,10,55,1.60
2021,03,28,10,57,8.10
2021,03,28,11,02,9.60
2021,03,28,11,03,8.10
2021,03,28,11,05,6.40
2021,03,28,11,06,6.40
2021,03,28,11,08,6.40
2021,03,28,11,15,8.10
2021,03,28,11,21,1.60
2021,03,28,11,22,9.60
2021,03,28,11,25,3.20
2021,03,28,11,26,1.60
2021,03,28,11,29,9.60
2021,03,28,11,30,9.60
2021,03,28,11,44,8.10
2021,03,28,12,04,9.60
2021,03,28,12,05,6.40
2021,03,28,12,11,1.60
2021,03,28,12,22,3.20
2021,03,28,12,23,3.20
2021,03,28,12,24,1.60
2021,03,28,12,26,4.80
2021,03,28,12,27,6.40
2021,03,28,12,28,1.60
2021,03,28,12,33,8.10
2021,03,28,12,34,3.20
2021,03,28,12,35,8.10
2021,03,28,12,36,8.10
2021,03,28,12,37,6.40
2021,03,28,12,38,9.60
2021,03,28,12,39,9.60
2021,03,28,12,40,9.60
2021,03,28,12,41,12.90
2021,03,28,12,42,19.30
2021,03,28,12,43,14.50
2021,03,28,12,44,16.10
2021,03,28,12,45,17.70
2021,03,28,12,46,20.90
2021,03,28,12,47,20.90
2021,03,28,12,48,19.30
2021,03,28,12,49,14.50
2021,03,28,12,50,19.30
2021,03,28,12,51,20.90
2021,03,28,12,52,12.90
2021,03,28,12,53,14.50
2021,03,28,12,54,14.50
2021,03,28,12,55,14.50
2021,03,28,12,56,16.10
2021,03,28,12,57,16.10
2021,03,28,12,58,9.60
2021,03,28,12,59,12.90
2021,03,28,13,00,20.90
2021,03,28,13,01,12.90
2021,03,28,13,02,20.90
2021,03,28,13,03,9.60
2021,03,28,13,04,17.70
2021,03,28,13,05,17.70
2021,03,28,13,06,9.60
2021,03,28,13,07,14.50
2021,03,28,13,08,16.10
2021,03,28,13,09,12.90
2021,03,28,13,10,9.60
2021,03,28,13,11,9.60
2021,03,28,13,12,8.10
2021,03,28,13,13,9.60
2021,03,28,13,14,14.50
2021,03,28,13,15,16.10
2021,03,28,13,16,20.90
2021,03,28,13,17,19.30
2021,03,28,13,18,16.10
2021,03,28,13,19,9.60
2021,03,28,13,20,17.70
2021,03,28,13,21,24.20
2021,03,28,13,22,17.70
2021,03,28,13,23,17.70
2021,03,28,13,24,30.60
2021,03,28,13,25,20.90
2021,03,28,13,26,16.10
2021,03,28,13,27,29.00
2021,03,28,13,28,29.00
2021,03,28,13,29,22.50
2021,03,28,13,30,22.50
2021,03,28,13,31,17.70
2021,03,28,13,32,19.30
2021,03,28,13,33,16.10
2021,03,28,13,34,22.50
2021,03,28,13,35,16.10
2021,03,28,13,36,22.50
2021,03,28,13,37,17.70
2021,03,28,13,38,27.40
2021,03,28,13,39,27.40
2021,03,28,13,40,16.10
2021,03,28,13,41,19.30
2021,03,28,13,42,19.30
2021,03,28,13,43,22.50
2021,03,28,13,44,25.70
2021,03,28,13,45,14.50
2021,03,28,13,46,22.50
2021,03,28,13,47,22.50
2021,03,28,13,48,19.30
2021,03,28,13,49,24.20
2021,03,28,13,50,12.90
2021,03,28,13,51,19.30
2021,03,28,13,52,17.70
2021,03,28,13,53,17.70
2021,03,28,13,54,22.50
2021,03,28,13,55,12.90
2021,03,28,13,56,20.90
2021,03,28,13,57,22.50
2021,03,28,13,58,27.40
2021,03,28,13,59,17.70
2021,03,28,14,00,14.50
2021,03,28,14,01,12.90
2021,03,28,14,02,20.90
2021,03,28,14,03,25.70
2021,03,28,14,04,14.50
2021,03,28,14,05,19.30
2021,03,28,14,06,22.50
2021,03,28,14,07,19.30
2021,03,28,14,08,27.40
2021,03,28,14,09,16.10
2021,03,28,14,10,24.20
2021,03,28,14,11,30.60
2021,03,28,14,12,19.30
2021,03,28,14,13,17.70
2021,03,28,14,14,20.90
2021,03,28,14,15,24.20
2021,03,28,14,16,24.20
2021,03,28,14,17,16.10
2021,03,28,14,18,12.90
2021,03,28,14,19,20.90
2021,03,28,14,20,25.70
2021,03,28,14,21,20.90
2021,03,28,14,22,29.00
2021,03,28,14,23,20.90
2021,03,28,14,24,24.20
2021,03,28,14,25,22.50
2021,03,28,14,26,20.90
2021,03,28,14,27,24.20
2021,03,28,14,28,32.20
2021,03,28,14,29,24.20
2021,03,28,14,30,20.90
2021,03,28,14,31,17.70
2021,03,28,14,32,20.90
2021,03,28,14,33,38.60
2021,03,28,14,34,24.20
2021,03,28,14,35,24.20
2021,03,28,14,36,25.70
2021,03,28,14,37,17.70
2021,03,28,14,38,17.70
2021,03,28,14,39,19.30
2021,03,28,14,40,19.30
2021,03,28,14,41,24.20
2021,03,28,14,42,35.40
2021,03,28,14,43,29.00
2021,03,28,14,44,22.50
2021,03,28,14,45,27.40
2021,03,28,14,46,30.60
2021,03,28,14,47,17.70
2021,03,28,14,48,17.70
2021,03,28,14,49,20.90
2021,03,28,14,50,24.20
2021,03,28,14,51,24.20
2021,03,28,14,52,25.70
2021,03,28,14,53,22.50
2021,03,28,14,54,25.70
2021,03,28,14,55,43.50
2021,03,28,14,56,27.40
2021,03,28,14,57,25.70
2021,03,28,14,58,25.70
2021,03,28,14,59,22.50
2021,03,28,15,00,40.20
2021,03,28,15,01,27.40
2021,03,28,15,02,24.20
2021,03,28,15,03,19.30
2021,03,28,15,04,32.20
2021,03,28,15,05,27.40
2021,03,28,15,06,37.00
2021,03,28,15,07,29.00
2021,03,28,15,08,33.80
2021,03,28,15,09,24.20
2021,03,28,15,10,33.80
2021,03,28,15,11,30.60
2021,03,28,15,12,32.20
2021,03,28,15,13,33.80
2021,03,28,15,14,17.70
2021,03,28,15,15,25.70
2021,03,28,15,16,20.90
2021,03,28,15,17,61.20
2021,03,28,15,18,74.00
2021,03,28,15,19,43.50
2021,03,28,15,20,54.70
2021,03,28,15,21,43.50
2021,03,28,15,22,32.20
2021,03,28,15,23,41.80
2021,03,28,15,24,33.80
2021,03,28,15,25,46.70
2021,03,28,15,26,46.70
2021,03,28,15,27,53.10
2021,03,28,15,28,37.00
2021,03,28,15,29,45.10
2021,03,28,15,30,24.20
2021,03,28,15,31,40.20
2021,03,28,15,32,25.70
2021,03,28,15,33,33.80
2021,03,28,15,34,25.70
2021,03,28,15,35,54.70
2021,03,28,15,36,37.00
2021,03,28,15,37,33.80
2021,03,28,15,38,57.90
2021,03,28,15,39,30.60
2021,03,28,15,40,30.60
2021,03,28,15,41,22.50
2021,03,28,15,42,29.00
2021,03,28,15,43,29.00
2021,03,28,15,44,22.50
2021,03,28,15,45,32.20
2021,03,28,15,46,27.40
2021,03,28,15,47,33.80
2021,03,28,15,48,32.20
2021,03,28,15,49,33.80
2021,03,28,15,50,40.20
2021,03,28,15,51,33.80
2021,03,28,15,52,32.20
2021,03,28,15,53,33.80
2021,03,28,15,54,30.60
2021,03,28,15,55,38.60
2021,03,28,15,56,30.60
2021,03,28,15,57,29.00
2021,03,28,15,58,25.70
2021,03,28,15,59,37.00
2021,03,28,16,00,25.70
2021,03,28,16,01,30.60
2021,03,28,16,02,29.00
2021,03,28,16,03,33.80
2021,03,28,16,04,30.60
2021,03,28,16,05,20.90
2021,03,28,16,06,37.00
2021,03,28,16,07,24.20
2021,03,28,16,08,30.60
2021,03,28,16,09,19.30
2021,03,28,16,10,22.50
2021,03,28,16,11,24.20
2021,03,28,16,12,32.20
2021,03,28,16,13,25.70
2021,03,28,16,14,24.20
2021,03,28,16,15,22.50
2021,03,28,16,16,22.50
2021,03,28,16,17,38.60
2021,03,28,16,18,25.70
2021,03,28,16,19,48.30
2021,03,28,16,20,25.70
2021,03,28,16,21,25.70
2021,03,28,16,22,30.60
2021,03,28,16,23,16.10
2021,03,28,16,24,17.70
2021,03,28,16,25,30.60
2021,03,28,16,26,43.50
2021,03,28,16,27,20.90
2021,03,28,16,28,32.20
2021,03,28,16,29,40.20
2021,03,28,16,30,51.50
2021,03,28,16,31,27.40
2021,03,28,16,32,37.00
2021,03,28,16,33,19.30
2021,03,28,16,34,40.20
2021,03,28,16,35,32.20
2021,03,28,16,36,41.80
2021,03,28,16,37,45.10
2021,03,28,16,38,20.90
2021,03,28,16,39,32.20
2021,03,28,16,40,22.50
2021,03,28,16,41,27.40
2021,03,28,16,42,49.90
2021,03,28,16,43,30.60
2021,03,28,16,44,20.90
2021,03,28,16,45,37.00
2021,03,28,16,46,40.20
2021,03,28,16,47,38.60
2021,03,28,16,48,24.20
2021,03,28,16,49,35.40
2021,03,28,16,50,49.90
2021,03,28,16,51,46.70
2021,03,28,16,52,40.20
2021,03,28,16,53,25.70
2021,03,28,16,54,29.00
2021,03,28,16,55,29.00
2021,03,28,16,56,37.00
2021,03,28,16,57,32.20
2021,03,28,16,58,32.20
2021,03,28,16,59,30.60
2021,03,28,17,00,37.00
2021,03,28,17,01,51.50
2021,03,28,17,02,29.00
2021,03,28,17,03,32.20
2021,03,28,17,04,17.70
2021,03,28,17,05,38.60
2021,03,28,17,06,33.80
2021,03,28,17,07,22.50
2021,03,28,17,08,17.70
2021,03,28,17,09,38.60
2021,03,28,17,10,22.50
2021,03,28,17,11,35.40
2021,03,28,17,12,32.20
2021,03,28,17,13,29.00
2021,03,28,17,14,17.70
2021,03,28,17,15,27.40
2021,03,28,17,16,17.70
2021,03,28,17,17,20.90
2021,03,28,17,18,30.60
2021,03,28,17,19,33.80
2021,03,28,17,20,33.80
2021,03,28,17,21,53.10
2021,03,28,17,22,20.90
2021,03,28,17,23,27.40
2021,03,28,17,24,22.50
2021,03,28,17,25,29.00
2021,03,28,17,26,25.70
2021,03,28,17,27,35.40
2021,03,28,17,28,22.50
2021,03,28,17,29,24.20
2021,03,28,17,30,25.70
2021,03,28,17,31,22.50
2021,03,28,17,32,20.90
2021,03,28,17,33,24.20
2021,03,28,17,34,29.00
2021,03,28,17,35,27.40
2021,03,28,17,36,30.60
2021,03,28,17,37,32.20
2021,03,28,17,38,25.70
2021,03,28,17,39,25.70
2021,03,28,17,40,17.70
2021,03,28,17,41,37.00
2021,03,28,17,42,37.00
2021,03,28,17,43,25.70
2021,03,28,17,44,20.90
2021,03,28,17,45,22.50
2021,03,28,17,46,25.70
2021,03,28,17,47,25.70
2021,03,28,17,48,17.70
2021,03,28,17,49,29.00
2021,03,28,17,50,46.70
2021,03,28,17,51,43.50
2021,03,28,17,52,49.90
2021,03,28,17,53,45.10
2021,03,28,17,54,30.60
2021,03,28,17,55,24.20
2021,03,28,17,56,27.40
2021,03,28,17,57,19.30
2021,03,28,17,58,24.20
2021,03,28,17,59,20.90
2021,03,28,18,00,20.90
2021,03,28,18,01,14.50
2021,03,28,18,02,16.10
2021,03,28,18,03,14.50
2021,03,28,18,04,19.30
2021,03,28,18,05,6.40
2021,03,28,18,06,11.30
2021,03,28,18,07,11.30
2021,03,28,18,08,8.10
2021,03,28,18,09,16.10
2021,03,28,18,10,8.10
2021,03,28,18,11,12.90
2021,03,28,18,12,16.10
2021,03,28,18,13,9.60
2021,03,28,18,14,11.30
2021,03,28,18,15,9.60
2021,03,28,18,16,12.90
2021,03,28,18,17,9.60
2021,03,28,18,18,9.60
2021,03,28,18,19,8.10
2021,03,28,18,20,8.10
2021,03,28,18,21,9.60
2021,03,28,18,22,8.10
2021,03,28,18,23,11.30
2021,03,28,18,24,6.40
2021,03,28,18,25,16.10
2021,03,28,18,26,22.50
2021,03,28,18,27,22.50
2021,03,28,18,28,27.40
2021,03,28,18,29,19.30
2021,03,28,18,30,14.50
2021,03,28,18,31,11.30
2021,03,28,18,32,11.30
2021,03,28,18,33,14.50
2021,03,28,18,34,9.60
2021,03,28,18,35,16.10
2021,03,28,18,36,17.70
2021,03,28,18,37,19.30
2021,03,28,18,38,17.70
2021,03,28,18,39,9.60
2021,03,28,18,40,11.30
2021,03,28,18,41,12.90
2021,03,28,18,42,19.30
2021,03,28,18,43,19.30
2021,03,28,18,44,17.70
2021,03,28,18,45,9.60
2021,03,28,18,46,19.30
2021,03,28,18,47,14.50
2021,03,28,18,48,14.50
2021,03,28,18,49,12.90
2021,03,28,18,50,17.70
2021,03,28,18,51,19.30
2021,03,28,18,52,29.00
2021,03,28,18,53,24.20
2021,03,28,18,54,19.30
2021,03,28,18,55,29.00
2021,03,28,18,56,12.90
2021,03,28,18,57,20.90
2021,03,28,18,58,24.20
2021,03,28,18,59,16.10
2021,03,28,19,00,17.70
2021,03,28,19,01,11.30
2021,03,28,19,02,12.90
2021,03,28,19,03,14.50
2021,03,28,19,04,25.70
2021,03,28,19,05,16.10
2021,03,28,19,06,24.20
2021,03,28,19,07,24.20
2021,03,28,19,08,22.50
2021,03,28,19,09,24.20
2021,03,28,19,10,17.70
2021,03,28,19,11,17.70
2021,03,28,19,12,17.70
2021,03,28,19,13,20.90
2021,03,28,19,14,17.70
2021,03,28,19,15,16.10
2021,03,28,19,16,12.90
2021,03,28,19,17,24.20
2021,03,28,19,18,19.30
2021,03,28,19,19,16.10
2021,03,28,19,20,20.90
2021,03,28,19,21,14.50
2021,03,28,19,22,16.10
2021,03,28,19,23,9.60
2021,03,28,19,24,12.90
2021,03,28,19,25,11.30
2021,03,28,19,26,9.60
2021,03,28,19,27,12.90
2021,03,28,19,28,14.50
2021,03,28,19,29,12.90
2021,03,28,19,30,12.90
2021,03,28,19,31,19.30
2021,03,28,19,32,22.50
2021,03,28,19,33,27.40
2021,03,28,19,34,22.50
2021,03,28,19,35,16.10
2021,03,28,19,36,17.70
2021,03,28,19,37,20.90
2021,03,28,19,38,20.90
2021,03,28,19,39,16.10
2021,03,28,19,40,17.70
2021,03,28,19,41,24.20
2021,03,28,19,42,29.00
2021,03,28,19,43,22.50
2021,03,28,19,44,22.50
2021,03,28,19,45,27.40
2021,03,28,19,46,16.10
2021,03,28,19,47,14.50
2021,03,28,19,48,9.60
2021,03,28,19,49,14.50
2021,03,28,19,50,12.90
2021,03,28,19,51,20.90
2021,03,28,19,52,17.70
2021,03,28,19,53,14.50
2021,03,28,19,54,12.90
2021,03,28,19,55,16.10
2021,03,28,19,56,12.90
2021,03,28,19,57,12.90
2021,03,28,19,58,27.40
2021,03,28,19,59,30.60
2021,03,28,20,00,45.10
2021,03,28,20,01,16.10
2021,03,28,20,02,16.10
2021,03,28,20,03,24.20
2021,03,28,20,04,20.90
2021,03,28,20,05,19.30
2021,03,28,20,06,19.30
2021,03,28,20,07,12.90
2021,03,28,20,08,25.70
2021,03,28,20,09,37.00
2021,03,28,20,10,17.70
2021,03,28,20,11,19.30
2021,03,28,20,12,22.50
2021,03,28,20,13,19.30
2021,03,28,20,14,30.60
2021,03,28,20,15,20.90
2021,03,28,20,16,19.30
2021,03,28,20,17,14.50
2021,03,28,20,18,11.30
2021,03,28,20,19,16.10
2021,03,28,20,20,16.10
2021,03,28,20,21,16.10
2021,03,28,20,22,32.20
2021,03,28,20,23,27.40
2021,03,28,20,24,12.90
2021,03,28,20,25,24.20
2021,03,28,20,26,25.70
2021,03,28,20,27,19.30
2021,03,28,20,28,14.50
2021,03,28,20,29,19.30
2021,03,28,20,30,11.30
2021,03,28,20,31,11.30
2021,03,28,20,32,20.90
2021,03,28,20,33,24.20
2021,03,28,20,34,19.30
2021,03,28,20,35,17.70
2021,03,28,20,36,17.70
2021,03,28,20,37,14.50
2021,03,28,20,38,12.90
2021,03,28,20,39,16.10
2021,03,28,20,40,12.90
2021,03,28,20,41,12.90
2021,03,28,20,42,11.30
2021,03,28,20,43,14.50
2021,03,28,20,44,19.30
2021,03,28,20,45,17.70
2021,03,28,20,46,11.30
2021,03,28,20,47,20.90
2021,03,28,20,48,19.30
2021,03,28,20,49,24.20
2021,03,28,20,50,17.70
2021,03,28,20,51,1.60
2021,03,28,20,52,8.10
2021,03,28,20,53,11.30
2021,03,28,20,54,14.50
2021,03,28,20,55,9.60
2021,03,28,20,56,12.90
2021,03,28,20,57,11.30
2021,03,28,20,58,20.90
2021,03,28,20,59,16.10
2021,03,28,21,00,11.30
2021,03,28,21,01,8.10
2021,03,28,21,02,11.30
2021,03,28,21,03,11.30
2021,03,28,21,04,12.90
2021,03,28,21,05,17.70
2021,03,28,21,06,19.30
2021,03,28,21,07,16.10
2021,03,28,21,08,9.60
2021,03,28,21,09,12.90
2021,03,28,21,10,9.60
2021,03,28,21,11,8.10
2021,03,28,21,12,11.30
2021,03,28,21,13,8.10
2021,03,28,21,18,11.30
2021,03,28,21,19,9.60
2021,03,28,21,20,8.10
2021,03,28,21,21,9.60
2021,03,28,21,22,16.10
2021,03,28,21,23,14.50
2021,03,28,21,24,14.50
2021,03,28,21,25,9.60
2021,03,28,21,26,6.40
2021,03,28,21,28,9.60
2021,03,28,21,29,8.10
2021,03,28,21,30,4.80
2021,03,28,21,31,4.80
2021,03,28,21,32,11.30
2021,03,28,21,33,8.10
2021,03,28,21,34,8.10
2021,03,28,21,35,6.40
2021,03,28,21,36,16.10
2021,03,28,21,37,14.50
2021,03,28,21,38,9.60
2021,03,28,21,39,6.40
2021,03,28,21,40,8.10
2021,03,28,21,42,6.40
2021,03,28,21,43,8.10
2021,03,28,21,44,6.40
2021,03,28,21,45,9.60
2021,03,28,21,46,4.80
2021,03,28,21,47,9.60
2021,03,28,21,48,8.10
2021,03,28,21,49,6.40
2021,03,28,21,50,4.80
2021,03,28,21,51,6.40
2021,03,28,21,53,4.80
2021,03,28,21,57,4.80
2021,03,28,22,02,6.40
2021,03,28,22,03,6.40
2021,03,28,22,04,3.20
2021,03,28,22,05,6.40
2021,03,28,22,06,6.40
2021,03,28,22,07,4.80
2021,03,28,22,11,6.40
2021,03,28,22,12,4.80
2021,03,28,22,13,9.60
2021,03,28,22,14,8.10
2021,03,28,22,15,4.80
2021,03,28,22,16,8.10
2021,03,28,22,17,8.10
2021,03,28,22,18,8.10
2021,03,28,22,19,6.40
2021,03,28,22,20,6.40
2021,03,28,22,21,4.80
2021,03,28,22,22,6.40
2021,03,28,22,23,6.40
2021,03,28,22,24,8.10
2021,03,28,22,25,8.10
2021,03,28,22,26,9.60
2021,03,28,22,28,4.80
2021,03,28,22,29,3.20
2021,03,28,22,30,8.10
2021,03,28,22,31,3.20
2021,03,28,22,41,9.60
2021,03,28,22,42,6.40
2021,03,28,22,54,3.20
2021,03,28,23,05,6.40
2021,03,28,23,06,3.20
2021,03,28,23,07,4.80
2021,03,28,23,08,6.40
2021,03,28,23,15,14.50
2021,03,28,23,16,6.40
2021,03,28,23,17,8.10
2021,03,28,23,18,8.10
2021,03,28,23,19,6.40
2021,03,28,23,20,4.80
2021,03,28,23,23,6.40
2021,03,28,23,24,8.10
2021,03,28,23,25,6.40
2021,03,28,23,26,4.80
2021,03,28,23,27,9.60
2021,03,28,23,28,8.10
2021,03,28,23,29,6.40
2021,03,28,23,30,6.40
2021,03,28,23,31,8.10
2021,03,28,23,32,8.10
2021,03,28,23,33,4.80
2021,03,28,23,34,4.80
2021,03,28,23,35,6.40
2021,03,28,23,38,4.80
2021,03,28,23,41,4.80
2021,03,28,23,42,4.80
2021,03,28,23,43,3.20
2021,03,28,23,44,4.80
2021,03,28,23,45,1.60
2021,03,28,23,46,3.20
2021,03,28,23,47,4.80
2021,03,28,23,48,4.80
